Temp
2 3 3 3 3 4 3 3 3 3 3 3 3 3 4 4 4 3 3 2 3 3 3 5 5 6 6 6 6 6 6 6 6 6 5 6 6 6 5 5 5 3 5
1 2 2 3 2 2 3 3 3 3 3 3 3 3 3 3 3 3 3 2 2 2 3 4 4 5 5 5 6 6 6 6 6 5 5 5 5 5 5 5 5 4 4
-1 1 1 2 2 2 2 3 3 3 3 3 2 2 2 2 3 3 3 2 2 3 3 3 3 3 4 5 5 5 5 5 5 4 4 5 5 5 5 4 4 4 4
-2 -1 -1 1 2 2 2 3 3 2 3 2 2 2 2 2 2 2 2 2 3 3 3 3 3 3 3 4 4 5 4 4 4 4 4 4 4 4 4 4 4 4 4
-3 -2 -1 -1 0 1 1 3 3 3 2 3 2 2 2 2 1 2 2 2 2 2 2 3 2 2 3 2 3 3 4 4 4 4 4 4 4 3 3 3 3 3 3
-3 -2 -1 -1 0 1 2 2 3 3 3 2 3 3 2 2 2 2 2 2 3 3 3 3 3 2 2 3 3 3 3 3 3 3 3 3 4 3 3 2 2 2 2
-4 -3 -2 -2 -1 0 2 2 2 2 2 2 2 3 2 2 2 2 2 2 2 2 2 3 2 2 2 2 3 2 2 2 3 3 3 3 3 3 3 3 2 2 2
-6 -4 -2 -2 -1 -1 0 1 1 2 1 1 2 2 2 2 2 2 2 2 2 2 2 3 2 3 2 1 2 2 2 2 2 2 2 2 3 3 2 2 2 2 2
-8 -6 -4 -2 -2 -1 -0 0 1 1 1 1 1 1 2 2 2 2 1 1 1 2 2 2 2 2 2 1 2 1 1 2 1 1 1 2 2 2 2 2 2 2 2
-9 -7 -6 -4 -3 -2 -1 0 0 0 0 0 0 1 1 1 1 1 2 1 1 2 2 2 2 2 2 1 2 1 1 1 1 1 1 1 2 2 2 2 1 1 2
-12 -8 -7 -5 -4 -2 -2 -1 -0 -0 -0 0 0 0 1 1 1 1 1 1 1 2 2 2 2 2 2 2 1 1 1 1 1 1 1 0 1 1 0 0 0 0 1
-14 -11 -8 -6 -5 -4 -3 -2 -1 -0 -0 0 0 0 0 0 0 1 1 1 1 1 1 1 2 1 1 0 1 1 1 1 1 1 -0 1 0 1 0 0 0 0 -0
-15 -13 -10 -7 -6 -5 -4 -4 -3 -1 -1 -0 0 0 0 0 0 0 0 1 0 1 1 1 1 1 1 1 1 1 1 1 1 1 0 0 0 0 1 -0 -0 -0 -0
-15 -14 -12 -9 -8 -6 -5 -4 -4 -3 -2 -1 -0 -0 0 0 0 0 0 1 0 0 0 0 0 0 1 1 1 1 0 1 0 0 0 0 0 0 0 0 -0 -0 -0
-15 -14 -13 -11 -9 -8 -6 -5 -4 -4 -3 -2 -2 -1 -0 0 0 1 1 0 0 0 0 0 0 0 0 0 0 0 0 0 1 0 0 0 1 -0 0 -0 -0 -0 -0
-16 -15 -14 -12 -11 -10 -9 -7 -6 -4 -4 -3 -3 -2 -2 -1 -0 0 0 1 -0 -0 -0 -0 -0 -0 -0 -0 -0 -0 0 0 0 1 1 1 1 0 0 0 -0 0 -0
-17 -16 -14 -13 -12 -11 -10 -9 -7 -7 -5 -4 -4 -3 -2 -2 -2 -1 -1 -1 -2 -1 -1 -1 -1 -1 -1 -1 -0 -0 -0 -0 0 -0 -0 0 1 1 0 -1 -1 -1 -1
-18 -17 -15 -15 -13 -12 -11 -10 -9 -8 -7 -6 -4 -4 -3 -3 -3 -2 -2 -2 -2 -2 -2 -2 -1 -1 -1 -1 -1 -1 -1 -0 0 0 -0 1 0 0 -0 -0 -1 -1 -1
-19 -18 -17 -16 -14 -13 -12 -11 -11 -10 -8 -7 -6 -5 -3 -3 -3 -3 -3 -3 -3 -2 -2 -2 -3 -3 -3 -2 -1 -1 -1 -0 -0 -0 -1 -1 -1 -1 -0 -1 -1 -1 -1
-19 -18 -18 -17 -16 -15 -14 -13 -12 -10 -9 -9 -8 -7 -5 -5 -4 -3 -3 -3 -3 -3 -3 -3 -2 -2 -2 -2 -2 -1 -1 -0 -1 -3 -2 -1 -1 -2 -1 -1 -1 -1 -3
-19 -18 -18 -17 -16 -15 -15 -14 -12 -11 -10 -9 -9 -8 -8 -6 -5 -4 -4 -3 -3 -3 -3 -3 -2 -3 -2 -3 -2 -2 -2 -3 -2 -2 -3 -3 -3 -3 -2 -1 -1 -2 -4
-19 -19 -18 -18 -17 -17 -16 -15 -14 -13 -11 -10 -9 -9 -8 -8 -7 -6 -5 -4 -3 -3 -3 -3 -3 -3 -3 -3 -3 -3 -3 -3 -4 -3 -3 -3 -3 -3 -2 -2 -3 -3 -3
-19 -19 -19 -18 -18 -17 -16 -16 -15 -14 -13 -12 -11 -10 -9 -9 -8 -8 -7 -6 -5 -4 -4 -4 -3 -3 -3 -4 -3 -3 -3 -4 -4 -4 -4 -4 -4 -4 -3 -3 -3 -4 -3
-19 -19 -19 -19 -18 -18 -17 -16 -16 -15 -14 -13 -12 -12 -11 -10 -9 -8 -8 -8 -7 -6 -5 -5 -4 -4 -4 -3 -4 -4 -3 -4 -4 -4 -4 -4 -4 -4 -3 -3 -3 -3 -3
-20 -19 -19 -19 -18 -18 -18 -17 -16 -16 -15 -14 -14 -13 -12 -11 -10 -9 -8 -8 -8 -8 -7 -6 -6 -5 -4 -4 -4 -4 -4 -4 -4 -4 -4 -4 -4 -4 -4 -3 -3 -3 -3
-20 -20 -19 -19 -19 -18 -18 -18 -17 -17 -16 -15 -15 -14 -13 -13 -12 -11 -10 -9 -8 -8 -8 -7 -7 -7 -6 -6 -6 -5 -5 -5 -5 -4 -4 -5 -5 -4 -4 -4 -3 -3 -3
Height
3058 3057 3063 3069 3073 3078 3081 3084 3087 3091 3095 3098 3102 3106 3110 3116 3119 3122 3125 3129 3131 3134 3138 3141 3145 3148 3150 3153 3155 3157 3159 3161 3163 3166 3168 3170 3172 3173 3175 3176 3178 3179 3180
3042 3046 3051 3055 3061 3066 3072 3075 3079 3083 3087 3091 3095 3099 3105 3109 3115 3117 3119 3124 3126 3129 3133 3137 3140 3144 3146 3148 3151 3153 3155 3157 3159 3162 3164 3166 3168 3169 3171 3173 3174 3176 3176
3031 3034 3038 3042 3047 3053 3060 3066 3070 3074 3078 3083 3087 3091 3096 3100 3104 3107 3112 3116 3120 3123 3127 3131 3134 3138 3141 3144 3146 3148 3151 3153 3155 3158 3161 3162 3163 3166 3168 3169 3171 3172 3172
3019 3022 3025 3029 3034 3039 3047 3054 3060 3065 3070 3075 3078 3082 3087 3092 3097 3105 3109 3111 3114 3117 3121 3124 3129 3133 3137 3139 3142 3143 3146 3148 3151 3153 3155 3157 3160 3162 3163 3165 3165 3167 3168
3007 3010 3013 3017 3022 3028 3033 3041 3049 3056 3061 3066 3070 3074 3079 3085 3093 3097 3100 3104 3107 3112 3115 3119 3123 3126 3131 3134 3137 3139 3141 3143 3145 3148 3150 3153 3155 3157 3159 3160 3161 3162 3163
2994 3000 3002 3006 3011 3018 3023 3028 3036 3042 3049 3056 3061 3065 3071 3077 3081 3086 3091 3095 3100 3103 3108 3112 3116 3120 3125 3129 3132 3134 3136 3138 3141 3143 3145 3148 3150 3152 3154 3155 3156 3157 3158
2982 2988 2993 2995 3000 3006 3011 3016 3024 3030 3037 3045 3051 3057 3063 3068 3073 3079 3084 3089 3092 3096 3101 3105 3109 3114 3119 3122 3125 3128 3130 3133 3136 3138 3141 3142 3144 3146 3148 3149 3150 3152 3152
2973 2977 2983 2986 2990 2997 3001 3006 3014 3019 3026 3034 3041 3047 3053 3059 3064 3070 3076 3081 3086 3091 3096 3098 3103 3106 3111 3115 3118 3122 3125 3128 3131 3132 3135 3137 3138 3140 3143 3144 3145 3146 3147
2964 2968 2973 2978 2981 2987 2993 2997 3004 3010 3017 3024 3031 3038 3044 3049 3055 3062 3067 3073 3078 3083 3087 3090 3095 3098 3104 3109 3112 3115 3118 3121 3123 3126 3128 3130 3132 3134 3137 3138 3139 3140 3142
2956 2962 2966 2970 2973 2979 2985 2989 2995 3002 3009 3016 3023 3029 3035 3042 3048 3054 3059 3064 3070 3075 3079 3083 3088 3092 3097 3101 3104 3107 3111 3113 3117 3119 3121 3124 3127 3128 3130 3132 3133 3134 3135
2953 2954 2958 2962 2964 2971 2977 2981 2986 2994 3001 3008 3014 3021 3027 3033 3040 3045 3051 3057 3062 3066 3071 3075 3079 3084 3089 3093 3096 3099 3102 3106 3109 3112 3115 3117 3119 3122 3122 3125 3126 3128 3129
2950 2949 2951 2954 2957 2963 2968 2974 2979 2985 2992 2998 3005 3012 3019 3025 3031 3037 3043 3049 3055 3059 3063 3067 3071 3075 3080 3084 3088 3091 3095 3099 3101 3105 3107 3110 3112 3114 3116 3118 3118 3120 3122
2951 2947 2946 2949 2953 2956 2960 2967 2973 2977 2983 2990 2997 3004 3010 3017 3022 3029 3035 3041 3047 3052 3056 3060 3064 3068 3072 3076 3081 3084 3087 3090 3093 3096 3098 3102 3103 3106 3108 3110 3110 3111 3112
2949 2946 2945 2946 2950 2951 2953 2959 2966 2971 2976 2981 2987 2994 3001 3008 3014 3020 3027 3033 3039 3044 3048 3052 3057 3060 3064 3068 3073 3076 3079 3082 3084 3086 3091 3094 3095 3098 3099 3100 3101 3103 3102
2949 2948 2946 2945 2947 2949 2950 2952 2957 2963 2969 2974 2979 2984 2991 2998 3005 3012 3018 3024 3030 3036 3040 3044 3048 3052 3055 3059 3064 3067 3071 3074 3076 3079 3082 3084 3087 3088 3089 3090 3092 3092 3093
2951 2948 2945 2945 2946 2947 2948 2949 2951 2955 2961 2966 2972 2977 2983 2989 2995 3002 3008 3014 3020 3026 3030 3035 3039 3043 3046 3050 3054 3057 3060 3063 3065 3069 3071 3074 3076 3077 3078 3080 3082 3084 3084
2952 2948 2947 2946 2946 2946 2947 2947 2949 2951 2953 2958 2964 2970 2975 2981 2986 2993 2999 3004 3009 3015 3020 3025 3029 3033 3037 3041 3044 3047 3050 3052 3056 3058 3060 3062 3064 3067 3069 3070 3072 3073 3075
2952 2950 2949 2947 2947 2946 2946 2946 2947 2949 2950 2952 2956 2962 2968 2973 2978 2985 2991 2996 3001 3006 3011 3015 3019 3023 3027 3031 3035 3038 3040 3043 3046 3048 3050 3051 3054 3056 3059 3060 3062 3064 3065
2955 2953 2950 2948 2947 2947 2947 2947 2947 2947 2948 2949 2951 2954 2960 2965 2971 2976 2982 2986 2992 2997 3001 3006 3010 3014 3018 3022 3026 3029 3032 3033 3035 3037 3040 3042 3045 3048 3049 3051 3053 3054 3055
2957 2954 2951 2949 2948 2948 2947 2947 2946 2946 2947 2947 2949 2951 2953 2957 2962 2967 2972 2976 2983 2988 2992 2997 3001 3006 3010 3013 3016 3019 3021 3023 3025 3028 3031 3033 3036 3037 3039 3041 3043 3043 3045
2958 2955 2954 2951 2949 2949 2948 2946 2945 2946 2946 2946 2947 2949 2950 2952 2956 2960 2964 2969 2974 2979 2984 2988 2992 2997 3000 3004 3008 3011 3013 3016 3018 3021 3024 3026 3027 3029 3029 3031 3033 3034 3036
2959 2957 2954 2953 2951 2951 2949 2946 2947 2945 2944 2944 2945 2947 2949 2950 2952 2955 2958 2962 2967 2972 2974 2978 2983 2987 2992 2996 3000 3004 3007 3010 3013 3015 3017 3019 3020 3022 3024 3025 3027 3028 3030
2961 2958 2956 2955 2953 2952 2949 2949 2946 2944 2944 2944 2944 2945 2947 2948 2950 2952 2955 2958 2961 2964 2968 2972 2976 2979 2984 2989 2993 2996 2999 3003 3007 3009 3012 3014 3016 3018 3020 3021 3023 3024 3026
2962 2960 2958 2956 2954 2952 2950 2949 2946 2945 2944 2944 2944 2944 2946 2947 2949 2951 2953 2955 2957 2960 2962 2966 2970 2973 2976 2981 2985 2990 2992 2996 3000 3003 3005 3008 3010 3012 3015 3016 3018 3019 3020
2962 2960 2959 2956 2955 2953 2952 2950 2948 2946 2945 2945 2944 2944 2945 2946 2946 2948 2950 2953 2956 2958 2960 2962 2965 2968 2971 2976 2978 2982 2985 2989 2992 2995 2998 3001 3003 3006 3008 3009 3011 3013 3014
2962 2960 2959 2957 2954 2954 2952 2950 2949 2948 2947 2946 2946 2945 2945 2946 2946 2946 2948 2950 2952 2955 2957 2959 2962 2964 2966 2969 2972 2975 2979 2982 2985 2987 2990 2993 2996 2999 3001 3003 3004 3006 3007
Wind_Speed
39 50 52 51 48 47 45 44 42 40 37 40 42 44 42 38 35 34 33 32 33 32 25 26 27 27 25 24 24 24 23 24 23 21 20 20 20 21 21 22 21 18 23
44 46 50 57 53 51 50 46 43 41 41 40 40 44 44 41 35 34 39 35 32 34 29 27 25 26 26 26 26 25 24 24 24 22 21 20 21 22 21 21 23 23 24
42 47 48 57 61 56 53 50 47 43 41 41 40 42 48 46 44 41 39 35 28 27 27 28 27 23 24 25 25 24 24 25 25 23 23 22 23 22 21 21 22 23 23
47 47 45 51 59 63 61 56 53 48 45 41 43 44 44 48 49 42 38 37 35 28 25 25 26 23 23 25 25 26 26 26 26 27 25 23 24 20 22 22 22 23 24
53 50 54 49 54 53 56 59 58 55 50 46 45 42 43 45 43 43 43 41 40 42 32 29 27 26 24 26 29 24 24 26 27 27 25 24 24 22 22 23 21 22 22
54 48 47 50 50 50 51 53 57 58 56 51 50 46 43 44 45 45 44 42 41 40 32 36 33 33 28 25 25 28 30 25 25 26 25 25 24 22 23 23 23 22 23
47 53 45 43 42 44 46 50 55 56 58 54 53 51 46 44 46 45 45 43 43 37 36 35 35 34 32 29 29 29 26 26 25 26 25 25 25 25 25 27 27 26 27
38 44 48 43 42 36 36 45 50 50 57 53 53 53 50 46 46 47 46 45 46 40 35 38 39 36 33 29 26 27 30 27 29 26 26 26 26 26 27 27 27 28 30
28 37 41 42 39 40 37 38 45 48 54 53 54 52 50 49 44 44 46 44 44 43 42 44 38 34 37 33 31 33 29 32 28 28 28 26 26 26 26 28 28 29 31
16 30 35 37 35 41 42 39 40 46 50 51 51 49 48 48 45 44 46 46 44 44 43 43 43 44 42 36 38 39 37 36 35 29 32 32 29 28 29 27 29 30 31
9 20 30 33 37 38 40 42 43 47 48 48 48 47 46 46 47 49 48 45 44 43 41 42 42 45 44 39 39 38 35 37 37 38 33 30 32 34 28 28 30 32 31
2 10 20 29 34 36 38 38 41 44 48 48 48 48 45 46 47 48 48 45 41 39 36 37 39 43 44 44 42 41 40 37 40 36 38 36 37 33 30 33 35 35 36
5 3 12 20 24 31 36 36 33 40 44 45 47 48 46 45 47 47 46 44 41 38 35 35 35 38 44 46 44 39 38 38 36 38 35 36 39 37 37 38 40 35 36
7 3 5 14 19 20 27 33 38 30 37 43 47 48 49 49 48 47 46 44 42 40 38 37 36 35 37 41 42 43 40 36 40 38 39 36 39 40 39 38 40 39 40
6 4 1 6 13 17 18 23 32 39 28 34 37 43 50 52 52 50 48 47 46 44 41 40 38 38 39 42 43 42 41 40 42 43 43 43 41 40 43 47 41 43 44
8 6 3 1 5 9 14 17 22 30 41 30 34 36 37 43 50 50 50 50 44 46 45 42 39 38 41 39 42 45 43 42 43 43 38 41 42 38 44 42 40 45 44
10 8 5 2 2 4 7 10 17 19 26 32 32 33 36 38 37 40 41 39 40 43 47 45 42 40 39 40 39 39 40 38 39 42 39 41 41 46 44 43 42 40 38
10 8 6 5 2 1 3 4 7 13 18 21 29 36 31 32 35 38 33 38 43 44 41 41 42 42 42 40 38 37 39 39 40 40 41 38 42 40 41 44 43 41 36
13 12 10 8 4 1 1 3 4 7 11 15 21 26 34 37 35 35 44 47 41 39 37 41 38 36 37 35 36 37 38 38 39 39 35 34 34 34 38 36 34 37 41
11 10 10 9 7 4 2 2 3 6 8 10 13 18 24 29 32 35 33 34 40 38 33 38 34 35 36 34 34 35 31 31 31 30 30 29 33 32 33 38 43 47 39
10 10 10 9 7 6 5 3 2 4 7 8 9 11 14 19 25 28 29 31 30 36 37 38 40 38 36 31 31 25 24 21 23 26 26 27 29 26 23 25 23 18 16
8 8 8 8 7 7 6 4 3 1 4 8 8 10 11 13 15 22 28 34 36 33 40 39 37 36 32 31 30 24 21 23 24 25 24 21 20 22 18 15 13 14 17
8 8 8 8 8 7 6 5 4 2 0 3 5 8 10 12 14 16 19 24 33 34 33 36 38 37 36 33 29 31 31 29 23 24 24 24 18 19 18 16 16 15 15
7 7 7 7 7 7 7 7 6 4 2 1 2 5 8 11 13 15 17 18 21 27 30 32 36 34 34 39 35 31 33 32 32 31 30 29 27 26 24 22 21 20 20
9 8 8 8 7 8 8 7 6 5 4 2 0 3 5 7 11 14 17 19 20 22 24 28 30 33 35 35 31 34 35 35 35 33 32 31 31 30 27 26 25 24 23
8 9 9 10 10 10 9 9 6 5 5 3 2 0 4 6 7 9 13 17 20 22 22 25 27 27 27 28 29 31 30 31 30 30 31 27 27 28 27 25 25 24 23
Wind_Direction
245 234 230 229 227 226 223 222 225 226 223 223 221 219 220 221 223 226 240 232 232 227 223 222 220 218 215 214 215 217 219 222 223 222 218 216 218 221 222 225 227 226 232
244 238 228 226 227 227 227 225 227 227 224 224 223 222 220 220 224 227 233 222 228 233 230 225 222 221 219 217 218 219 221 226 228 227 226 223 225 226 225 229 234 238 238
244 240 234 225 226 226 225 226 227 225 224 223 222 222 217 220 222 224 229 220 224 223 223 226 219 223 224 222 219 221 226 228 231 231 230 229 232 234 234 236 238 240 241
243 235 233 225 225 227 228 227 228 228 225 222 222 221 221 220 221 223 224 223 224 222 223 218 224 225 229 230 226 224 224 227 230 232 230 231 235 231 235 238 241 244 244
245 240 237 233 226 227 228 229 229 229 228 223 221 222 220 219 221 222 224 225 226 229 225 231 227 221 228 229 231 232 233 231 231 234 235 232 235 237 238 239 239 241 241
238 237 234 233 230 232 229 228 226 226 226 224 225 225 223 220 219 218 220 225 225 217 228 228 224 239 222 227 236 234 239 238 236 237 236 238 239 235 237 240 242 241 238
226 233 231 223 220 226 225 223 220 224 222 223 224 227 223 222 220 218 219 225 226 227 225 230 226 222 225 231 235 230 228 235 241 243 241 238 238 238 239 239 240 241 246
219 219 225 222 215 218 220 217 217 222 219 220 222 224 225 223 220 220 218 223 225 234 233 236 233 222 226 229 228 228 230 237 237 237 243 241 241 242 243 244 245 244 247
214 220 217 215 212 218 220 216 216 218 217 220 221 222 225 222 218 218 216 221 225 227 230 233 232 224 227 233 226 227 243 241 239 235 238 241 243 242 246 248 250 252 251
183 214 217 214 212 216 220 215 216 215 217 219 219 221 223 223 215 214 218 220 225 229 231 232 229 230 237 238 235 238 242 238 230 237 241 240 244 250 244 248 250 253 258
186 188 210 213 214 212 213 211 212 213 214 217 220 222 223 221 218 214 218 222 227 231 231 232 234 232 232 224 233 237 242 243 243 243 238 236 242 247 243 244 252 260 258
233 178 193 205 210 214 211 215 210 211 216 218 218 219 221 218 218 218 220 223 226 230 232 232 232 230 228 228 234 241 245 246 247 250 248 245 245 245 249 258 259 252 258
315 184 182 192 199 207 213 212 221 217 215 215 215 216 218 216 216 217 218 221 224 227 230 233 235 235 232 233 236 243 250 251 235 240 241 247 244 248 246 246 254 255 267
343 350 178 191 194 191 198 213 219 223 224 223 220 218 218 219 220 220 221 224 226 230 232 232 234 237 237 236 233 238 243 240 239 238 251 247 246 252 253 252 254 251 257
342 352 197 184 199 198 189 193 212 217 222 224 225 222 220 220 223 225 226 227 229 232 233 233 236 239 237 236 237 239 242 242 242 246 247 246 250 256 251 254 252 263 257
2 5 24 166 199 203 202 195 193 207 221 222 222 221 220 221 222 225 229 230 228 228 233 235 238 242 238 237 239 241 244 245 247 249 250 248 248 252 256 252 263 263 260
13 7 12 38 207 197 200 201 206 199 192 205 216 217 221 219 221 217 221 220 225 230 232 236 241 241 241 238 239 239 243 246 245 251 255 253 248 248 254 261 264 264 256
17 18 14 16 18 207 202 197 199 211 215 200 197 204 212 219 219 210 213 221 228 231 237 238 241 241 237 236 238 240 242 246 250 250 251 256 247 251 253 256 256 263 267
13 18 20 13 8 350 250 223 208 205 211 218 213 200 203 211 212 216 217 226 230 229 234 234 239 234 232 234 236 241 246 248 251 251 240 247 247 255 253 252 264 264 264
12 16 23 14 360 347 339 273 240 218 212 208 216 213 210 214 210 216 217 211 221 225 227 228 226 228 233 231 236 243 245 246 243 241 242 238 247 248 246 256 258 262 261
13 16 13 18 9 356 360 338 267 244 221 207 210 211 201 204 211 217 223 216 223 220 224 224 224 226 228 225 230 234 233 230 226 231 237 245 247 244 242 243 244 240 224
8 10 15 20 24 10 2 356 336 230 216 215 210 220 213 200 201 203 205 215 213 222 207 218 219 213 212 226 217 232 227 224 228 233 236 232 233 225 226 218 220 221 229
11 12 16 17 19 20 16 1 15 28 254 217 219 220 219 215 206 203 205 212 214 213 211 212 214 209 207 208 216 210 205 218 228 235 232 224 219 217 211 207 212 220 227
12 16 17 17 14 21 30 21 21 24 9 300 229 230 225 216 215 212 206 200 202 204 206 210 211 213 216 212 210 226 225 234 231 227 220 215 221 223 226 229 234 238 241
5 10 13 22 25 23 27 32 26 30 14 3 283 214 226 224 217 216 217 218 209 203 200 201 201 201 211 215 213 213 216 220 216 220 227 224 226 225 234 235 236 239 240
352 356 359 6 12 12 17 27 29 31 40 16 4 151 199 206 209 216 220 222 224 226 219 212 212 209 206 206 208 208 213 219 225 231 226 221 230 231 232 234 234 234 236